Year,Month,Day,Hour,Minute,Value (Times are PST for windspeed in km/hr)
2010,06,02,00,00,16.10
2010,06,02,00,01,14.60
2010,06,02,00,02,13.10
2010,06,02,00,03,10.50
2010,06,02,00,04,8.80
2010,06,02,00,05,15.00
2010,06,02,00,06,13.90
2010,06,02,00,07,13.50
2010,06,02,00,08,14.20
2010,06,02,00,09,19.80
2010,06,02,00,10,18.10
2010,06,02,00,11,13.50
2010,06,02,00,12,14.90
2010,06,02,00,13,15.30
2010,06,02,00,14,17.80
2010,06,02,00,15,8.50
2010,06,02,00,16,12.00
2010,06,02,00,17,14.20
2010,06,02,00,18,12.60
2010,06,02,00,19,15.10
2010,06,02,00,20,12.60
2010,06,02,00,21,14.40
2010,06,02,00,22,16.30
2010,06,02,00,23,13.10
2010,06,02,00,24,10.40
2010,06,02,00,25,13.30
2010,06,02,00,26,13.20
2010,06,02,00,27,15.50
2010,06,02,00,28,7.50
2010,06,02,00,29,10.90
2010,06,02,00,30,10.40
2010,06,02,00,31,11.10
2010,06,02,00,32,15.70
2010,06,02,00,33,9.70
2010,06,02,00,34,11.70
2010,06,02,00,35,16.90
2010,06,02,00,36,20.30
2010,06,02,00,37,17.50
2010,06,02,00,38,9.20
2010,06,02,00,39,13.40
2010,06,02,00,40,10.00
2010,06,02,00,41,17.10
2010,06,02,00,42,14.00
2010,06,02,00,43,8.10
2010,06,02,00,44,6.90
2010,06,02,00,45,7.20
2010,06,02,00,46,7.70
2010,06,02,00,47,13.30
2010,06,02,00,48,10.50
2010,06,02,00,49,16.70
2010,06,02,00,50,14.20
2010,06,02,00,51,11.50
2010,06,02,00,52,12.70
2010,06,02,00,53,11.20
2010,06,02,00,54,8.00
2010,06,02,00,55,7.10
2010,06,02,00,56,11.70
2010,06,02,00,57,15.00
2010,06,02,00,58,13.30
2010,06,02,00,59,11.50
2010,06,02,01,00,10.30
2010,06,02,01,01,6.50
2010,06,02,01,02,12.70
2010,06,02,01,03,8.00
2010,06,02,01,04,10.70
2010,06,02,01,05,9.40
2010,06,02,01,06,17.00
2010,06,02,01,07,10.40
2010,06,02,01,08,12.50
2010,06,02,01,09,10.60
2010,06,02,01,10,12.10
2010,06,02,01,11,9.40
2010,06,02,01,12,12.30
2010,06,02,01,13,10.30
2010,06,02,01,14,9.80
2010,06,02,01,15,10.40
2010,06,02,01,16,13.70
2010,06,02,01,17,8.00
2010,06,02,01,18,13.00
2010,06,02,01,19,10.80
2010,06,02,01,20,8.30
2010,06,02,01,21,10.70
2010,06,02,01,22,13.80
2010,06,02,01,23,9.30
2010,06,02,01,24,7.40
2010,06,02,01,25,8.80
2010,06,02,01,26,6.60
2010,06,02,01,27,6.30
2010,06,02,01,28,9.30
2010,06,02,01,29,6.80
2010,06,02,01,30,3.60
2010,06,02,01,31,5.30
2010,06,02,01,32,7.20
2010,06,02,01,33,6.70
2010,06,02,01,34,7.20
2010,06,02,01,35,8.90
2010,06,02,01,36,8.10
2010,06,02,01,37,6.80
2010,06,02,01,38,4.70
2010,06,02,01,39,5.40
2010,06,02,01,40,6.50
2010,06,02,01,41,10.60
2010,06,02,01,42,8.60
2010,06,02,01,43,7.70
2010,06,02,01,44,7.50
2010,06,02,01,45,5.90
2010,06,02,01,46,6.80
2010,06,02,01,47,9.80
2010,06,02,01,48,10.10
2010,06,02,01,49,7.80
2010,06,02,01,50,10.60
2010,06,02,01,51,11.30
2010,06,02,01,52,8.20
2010,06,02,01,53,11.90
2010,06,02,01,54,8.10
2010,06,02,01,55,7.80
2010,06,02,01,56,12.10
2010,06,02,01,57,13.00
2010,06,02,01,58,7.80
2010,06,02,01,59,13.90
2010,06,02,02,00,11.10
2010,06,02,02,01,15.60
2010,06,02,02,02,12.40
2010,06,02,02,03,11.50
2010,06,02,02,04,14.30
2010,06,02,02,05,14.90
2010,06,02,02,06,12.20
2010,06,02,02,07,11.80
2010,06,02,02,08,11.70
2010,06,02,02,09,13.10
2010,06,02,02,10,11.70
2010,06,02,02,11,14.40
2010,06,02,02,12,17.10
2010,06,02,02,13,13.00
2010,06,02,02,14,10.80
2010,06,02,02,15,9.90
2010,06,02,02,16,9.00
2010,06,02,02,17,14.80
2010,06,02,02,18,5.90
2010,06,02,02,19,6.60
2010,06,02,02,20,6.20
2010,06,02,02,21,8.20
2010,06,02,02,22,6.10
2010,06,02,02,23,8.90
2010,06,02,02,24,9.40
2010,06,02,02,25,7.20
2010,06,02,02,26,7.50
2010,06,02,02,27,7.80
2010,06,02,02,28,7.90
2010,06,02,02,29,3.00
2010,06,02,02,30,7.70
2010,06,02,02,31,4.10
2010,06,02,02,32,2.70
2010,06,02,02,33,2.90
2010,06,02,02,34,8.00
2010,06,02,02,35,0.80
2010,06,02,02,36,4.00
2010,06,02,02,37,3.80
2010,06,02,02,38,1.70
2010,06,02,02,39,2.50
2010,06,02,02,40,2.00
2010,06,02,02,41,0.40
2010,06,02,02,42,0.60
2010,06,02,02,43,0.30
2010,06,02,02,44,2.50
2010,06,02,02,45,4.90
2010,06,02,02,46,3.20
2010,06,02,02,47,0.20
2010,06,02,02,48,1.10
2010,06,02,02,49,0.50
2010,06,02,02,50,0.80
2010,06,02,02,51,0.10
2010,06,02,02,52,0.00
2010,06,02,02,53,0.00
2010,06,02,02,54,0.40
2010,06,02,02,55,0.00
2010,06,02,02,56,0.00
2010,06,02,02,57,0.10
2010,06,02,02,58,0.00
2010,06,02,02,59,0.00
2010,06,02,03,00,0.00
2010,06,02,03,01,0.00
2010,06,02,03,02,0.00
2010,06,02,03,03,0.00
2010,06,02,03,04,0.10
2010,06,02,03,05,0.00
2010,06,02,03,06,0.00
2010,06,02,03,07,0.00
2010,06,02,03,08,0.00
2010,06,02,03,09,0.00
2010,06,02,03,10,0.80
2010,06,02,03,11,4.20
2010,06,02,03,12,2.80
2010,06,02,03,13,0.30
2010,06,02,03,14,0.00
2010,06,02,03,15,0.60
2010,06,02,03,16,1.80
2010,06,02,03,17,0.10
2010,06,02,03,18,0.10
2010,06,02,03,19,0.60
2010,06,02,03,20,0.10
2010,06,02,03,21,0.70
2010,06,02,03,22,0.00
2010,06,02,03,23,0.00
2010,06,02,03,24,0.70
2010,06,02,03,25,2.50
2010,06,02,03,26,1.90
2010,06,02,03,27,1.50
2010,06,02,03,28,1.40
2010,06,02,03,29,1.90
2010,06,02,03,30,0.60
2010,06,02,03,31,0.00
2010,06,02,03,32,0.00
2010,06,02,03,33,0.20
2010,06,02,03,34,0.10
2010,06,02,03,35,0.30
2010,06,02,03,36,3.10
2010,06,02,03,37,0.20
2010,06,02,03,38,0.20
2010,06,02,03,39,0.00
2010,06,02,03,40,0.00
2010,06,02,03,41,0.00
2010,06,02,03,42,0.10
2010,06,02,03,43,0.00
2010,06,02,03,44,0.70
2010,06,02,03,45,0.00
2010,06,02,03,46,0.60
2010,06,02,03,47,1.80
2010,06,02,03,48,1.10
2010,06,02,03,49,3.00
2010,06,02,03,50,0.00
2010,06,02,03,51,0.40
2010,06,02,03,52,0.00
2010,06,02,03,53,1.10
2010,06,02,03,54,0.90
2010,06,02,03,55,3.40
2010,06,02,03,56,2.10
2010,06,02,03,57,3.40
2010,06,02,03,58,0.90
2010,06,02,03,59,0.00
2010,06,02,04,00,0.90
2010,06,02,04,01,0.20
2010,06,02,04,02,0.00
2010,06,02,04,03,2.40
2010,06,02,04,04,3.50
2010,06,02,04,05,4.70
2010,06,02,04,06,0.10
2010,06,02,04,07,1.00
2010,06,02,04,08,2.50
2010,06,02,04,09,1.60
2010,06,02,04,10,0.00
2010,06,02,04,11,1.20
2010,06,02,04,12,1.60
2010,06,02,04,13,2.20
2010,06,02,04,14,2.60
2010,06,02,04,15,0.00
2010,06,02,04,16,0.60
2010,06,02,04,17,0.90
2010,06,02,04,18,0.10
2010,06,02,04,19,0.60
2010,06,02,04,20,4.50
2010,06,02,04,21,4.00
2010,06,02,04,22,3.70
2010,06,02,04,23,2.20
2010,06,02,04,24,3.20
2010,06,02,04,25,1.50
2010,06,02,04,26,0.00
2010,06,02,04,27,2.40
2010,06,02,04,28,0.10
2010,06,02,04,29,3.60
2010,06,02,04,30,3.90
2010,06,02,04,31,2.30
2010,06,02,04,32,2.50
2010,06,02,04,33,4.10
2010,06,02,04,34,2.70
2010,06,02,04,35,2.30
2010,06,02,04,36,0.30
2010,06,02,04,37,1.10
2010,06,02,04,38,3.10
2010,06,02,04,39,1.50
2010,06,02,04,40,0.60
2010,06,02,04,41,0.10
2010,06,02,04,42,0.00
2010,06,02,04,43,1.90
2010,06,02,04,44,2.20
2010,06,02,04,45,1.40
2010,06,02,04,46,2.10
2010,06,02,04,47,4.10
2010,06,02,04,48,2.70
2010,06,02,04,49,3.30
2010,06,02,04,50,3.60
2010,06,02,04,51,4.20
2010,06,02,04,52,1.50
2010,06,02,04,53,0.30
2010,06,02,04,54,1.50
2010,06,02,04,55,0.10
2010,06,02,04,56,2.10
2010,06,02,04,57,0.00
2010,06,02,04,58,0.00
2010,06,02,04,59,0.10
2010,06,02,05,00,1.70
2010,06,02,05,01,0.20
2010,06,02,05,02,0.10
2010,06,02,05,03,0.00
2010,06,02,05,04,0.00
2010,06,02,05,05,0.10
2010,06,02,05,06,0.00
2010,06,02,05,07,0.20
2010,06,02,05,08,0.00
2010,06,02,05,09,0.40
2010,06,02,05,10,0.90
2010,06,02,05,11,1.20
2010,06,02,05,12,0.10
2010,06,02,05,13,0.20
2010,06,02,05,14,0.10
2010,06,02,05,15,0.60
2010,06,02,05,16,1.30
2010,06,02,05,17,0.80
2010,06,02,05,18,3.10
2010,06,02,05,19,0.90
2010,06,02,05,20,3.00
2010,06,02,05,21,0.10
2010,06,02,05,22,4.80
2010,06,02,05,23,6.40
2010,06,02,05,24,5.10
2010,06,02,05,25,3.30
2010,06,02,05,26,5.40
2010,06,02,05,27,7.30
2010,06,02,05,28,7.20
2010,06,02,05,29,7.60
2010,06,02,05,30,7.70
2010,06,02,05,31,7.00
2010,06,02,05,32,7.90
2010,06,02,05,33,6.40
2010,06,02,05,34,6.40
2010,06,02,05,35,6.30
2010,06,02,05,36,3.30
2010,06,02,05,37,8.30
2010,06,02,05,38,8.40
2010,06,02,05,39,6.50
2010,06,02,05,40,6.60
2010,06,02,05,41,9.70
2010,06,02,05,42,8.90
2010,06,02,05,43,8.70
2010,06,02,05,44,9.20
2010,06,02,05,45,9.00
2010,06,02,05,46,7.80
2010,06,02,05,47,4.80
2010,06,02,05,48,4.10
2010,06,02,05,49,5.30
2010,06,02,05,50,5.90
2010,06,02,05,51,6.00
2010,06,02,05,52,6.90
2010,06,02,05,53,7.60
2010,06,02,05,54,6.00
2010,06,02,05,55,6.80
2010,06,02,05,56,7.50
2010,06,02,05,57,6.90
2010,06,02,05,58,8.30
2010,06,02,05,59,5.20
2010,06,02,06,00,6.10
2010,06,02,06,01,5.60
2010,06,02,06,02,4.80
2010,06,02,06,03,6.40
2010,06,02,06,04,6.90
2010,06,02,06,05,7.60
2010,06,02,06,06,8.80
2010,06,02,06,07,6.60
2010,06,02,06,08,5.80
2010,06,02,06,09,6.50
2010,06,02,06,10,6.60
2010,06,02,06,11,9.80
2010,06,02,06,12,7.80
2010,06,02,06,13,5.60
2010,06,02,06,14,7.70
2010,06,02,06,15,8.90
2010,06,02,06,16,8.90
2010,06,02,06,17,5.90
2010,06,02,06,18,7.10
2010,06,02,06,19,6.90
2010,06,02,06,20,8.50
2010,06,02,06,21,6.80
2010,06,02,06,22,8.60
2010,06,02,06,23,9.00
2010,06,02,06,24,7.10
2010,06,02,06,25,3.30
2010,06,02,06,26,4.90
2010,06,02,06,27,7.90
2010,06,02,06,28,6.40
2010,06,02,06,29,8.40
2010,06,02,06,30,7.90
2010,06,02,06,31,6.40
2010,06,02,06,32,4.50
2010,06,02,06,33,2.80
2010,06,02,06,34,4.80
2010,06,02,06,35,6.10
2010,06,02,06,36,5.30
2010,06,02,06,37,3.70
2010,06,02,06,38,5.80
2010,06,02,06,39,3.80
2010,06,02,06,40,7.60
2010,06,02,06,41,3.20
2010,06,02,06,42,5.30
2010,06,02,06,43,4.50
2010,06,02,06,44,2.30
2010,06,02,06,45,1.10
2010,06,02,06,46,3.90
2010,06,02,06,47,3.60
2010,06,02,06,48,5.70
2010,06,02,06,49,5.90
2010,06,02,06,50,3.90
2010,06,02,06,51,5.30
2010,06,02,06,52,5.70
2010,06,02,06,53,2.10
2010,06,02,06,54,6.30
2010,06,02,06,55,6.30
2010,06,02,06,56,4.10
2010,06,02,06,57,4.00
2010,06,02,06,58,0.40
2010,06,02,06,59,1.00
2010,06,02,07,00,0.30
2010,06,02,07,01,5.50
2010,06,02,07,02,5.50
2010,06,02,07,03,4.70
2010,06,02,07,04,4.30
2010,06,02,07,05,6.60
2010,06,02,07,06,2.20
2010,06,02,07,07,0.90
2010,06,02,07,08,1.60
2010,06,02,07,09,2.70
2010,06,02,07,10,4.40
2010,06,02,07,11,0.90
2010,06,02,07,12,0.30
2010,06,02,07,13,0.00
2010,06,02,07,14,0.00
2010,06,02,07,15,0.00
2010,06,02,07,16,1.70
2010,06,02,07,17,1.30
2010,06,02,07,18,0.80
2010,06,02,07,19,2.80
2010,06,02,07,20,0.00
2010,06,02,07,21,0.00
2010,06,02,07,22,0.00
2010,06,02,07,23,0.20
2010,06,02,07,24,0.10
2010,06,02,07,25,0.00
2010,06,02,07,26,0.00
2010,06,02,07,27,0.60
2010,06,02,07,28,0.50
2010,06,02,07,29,1.00
2010,06,02,07,30,1.30
2010,06,02,07,31,1.30
2010,06,02,07,32,1.00
2010,06,02,07,33,2.50
2010,06,02,07,34,2.50
2010,06,02,07,35,4.90
2010,06,02,07,36,3.50
2010,06,02,07,37,4.70
2010,06,02,07,38,4.50
2010,06,02,07,39,6.00
2010,06,02,07,40,3.80
2010,06,02,07,41,2.50
2010,06,02,07,42,2.80
2010,06,02,07,43,3.50
2010,06,02,07,44,2.70
2010,06,02,07,45,0.60
2010,06,02,07,46,1.10
2010,06,02,07,47,1.20
2010,06,02,07,48,0.50
2010,06,02,07,49,2.00
2010,06,02,07,50,0.60
2010,06,02,07,51,1.60
2010,06,02,07,52,0.70
2010,06,02,07,53,3.00
2010,06,02,07,54,1.30
2010,06,02,07,55,0.80
2010,06,02,07,56,2.90
2010,06,02,07,57,2.30
2010,06,02,07,58,0.40
2010,06,02,07,59,3.30
2010,06,02,08,00,3.50
2010,06,02,08,01,2.80
2010,06,02,08,02,4.50
2010,06,02,08,03,3.20
2010,06,02,08,04,2.20
2010,06,02,08,05,3.10
2010,06,02,08,06,3.80
2010,06,02,08,07,2.30
2010,06,02,08,08,5.70
2010,06,02,08,09,3.40
2010,06,02,08,10,5.30
2010,06,02,08,11,7.70
2010,06,02,08,12,4.90
2010,06,02,08,13,6.00
2010,06,02,08,14,1.70
2010,06,02,08,15,0.60
2010,06,02,08,16,5.70
2010,06,02,08,17,4.50
2010,06,02,08,18,5.10
2010,06,02,08,19,3.50
2010,06,02,08,20,4.20
2010,06,02,08,21,2.70
2010,06,02,08,22,3.80
2010,06,02,08,23,2.90
2010,06,02,08,24,3.30
2010,06,02,08,25,3.40
2010,06,02,08,26,5.50
2010,06,02,08,27,5.20
2010,06,02,08,28,4.30
2010,06,02,08,29,5.60
2010,06,02,08,30,2.70
2010,06,02,08,31,4.10
2010,06,02,08,32,5.80
2010,06,02,08,33,3.10
2010,06,02,08,34,4.20
2010,06,02,08,35,4.70
2010,06,02,08,36,1.80
2010,06,02,08,37,1.50
2010,06,02,08,38,0.00
2010,06,02,08,39,1.50
2010,06,02,08,40,0.00
2010,06,02,08,41,0.10
2010,06,02,08,42,1.60
2010,06,02,08,43,1.40
2010,06,02,08,44,1.70
2010,06,02,08,45,2.80
2010,06,02,08,46,6.00
2010,06,02,08,47,4.80
2010,06,02,08,48,5.00
2010,06,02,08,49,6.50
2010,06,02,08,50,4.80
2010,06,02,08,51,3.70
2010,06,02,08,52,0.50
2010,06,02,08,53,3.20
2010,06,02,08,54,0.10
2010,06,02,08,55,0.00
2010,06,02,08,56,0.10
2010,06,02,08,57,2.80
2010,06,02,08,58,0.00
2010,06,02,08,59,0.70
2010,06,02,09,00,3.60
2010,06,02,09,01,1.50
2010,06,02,09,02,0.80
2010,06,02,09,03,4.90
2010,06,02,09,04,2.70
2010,06,02,09,05,3.20
2010,06,02,09,06,2.80
2010,06,02,09,07,2.30
2010,06,02,09,08,5.40
2010,06,02,09,09,5.40
2010,06,02,09,10,3.10
2010,06,02,09,11,6.60
2010,06,02,09,12,3.20
2010,06,02,09,13,5.50
2010,06,02,09,14,13.50
2010,06,02,09,15,10.10
2010,06,02,09,16,9.00
2010,06,02,09,17,7.20
2010,06,02,09,18,3.90
2010,06,02,09,19,8.90
2010,06,02,09,20,10.60
2010,06,02,09,21,9.90
2010,06,02,09,22,7.40
2010,06,02,09,23,8.80
2010,06,02,09,24,7.80
2010,06,02,09,25,3.30
2010,06,02,09,26,6.20
2010,06,02,09,27,5.90
2010,06,02,09,28,4.10
2010,06,02,09,29,1.50
2010,06,02,09,30,3.10
2010,06,02,09,31,5.60
2010,06,02,09,32,1.70
2010,06,02,09,33,3.50
2010,06,02,09,34,3.40
2010,06,02,09,35,0.10
2010,06,02,09,36,1.40
2010,06,02,09,37,0.10
2010,06,02,09,38,1.40
2010,06,02,09,39,4.30
2010,06,02,09,40,3.20
2010,06,02,09,41,5.70
2010,06,02,09,42,6.80
2010,06,02,09,43,6.40
2010,06,02,09,44,4.70
2010,06,02,09,45,0.10
2010,06,02,09,46,0.10
2010,06,02,09,47,0.60
2010,06,02,09,48,5.60
2010,06,02,09,49,6.40
2010,06,02,09,50,5.30
2010,06,02,09,51,6.70
2010,06,02,09,52,4.30
2010,06,02,09,53,4.40
2010,06,02,09,54,5.70
2010,06,02,09,55,4.40
2010,06,02,09,56,0.60
2010,06,02,09,57,0.70
2010,06,02,09,58,0.80
2010,06,02,09,59,3.40
2010,06,02,10,00,5.60
2010,06,02,10,01,2.50
2010,06,02,10,02,1.70
2010,06,02,10,03,0.80
2010,06,02,10,04,1.40
2010,06,02,10,05,2.30
2010,06,02,10,06,0.20
2010,06,02,10,07,0.00
2010,06,02,10,08,0.70
2010,06,02,10,09,0.00
2010,06,02,10,10,1.50
2010,06,02,10,11,4.90
2010,06,02,10,12,3.60
2010,06,02,10,13,2.60
2010,06,02,10,14,0.70
2010,06,02,10,15,2.80
2010,06,02,10,16,0.40
2010,06,02,10,17,0.10
2010,06,02,10,18,1.60
2010,06,02,10,19,3.00
2010,06,02,10,20,3.50
2010,06,02,10,21,0.10
2010,06,02,10,22,1.80
2010,06,02,10,23,0.00
2010,06,02,10,24,0.90
2010,06,02,10,25,2.70
2010,06,02,10,26,1.50
2010,06,02,10,27,0.00
2010,06,02,10,28,0.30
2010,06,02,10,29,4.10
2010,06,02,10,30,4.50
2010,06,02,10,31,4.20
2010,06,02,10,32,0.60
2010,06,02,10,33,0.00
2010,06,02,10,34,0.00
2010,06,02,10,35,0.30
2010,06,02,10,36,0.20
2010,06,02,10,37,0.00
2010,06,02,10,38,0.10
2010,06,02,10,39,1.40
2010,06,02,10,40,3.10
2010,06,02,10,41,0.30
2010,06,02,10,42,0.00
2010,06,02,10,43,0.00
2010,06,02,10,44,0.20
2010,06,02,10,45,0.50
2010,06,02,10,46,1.90
2010,06,02,10,47,0.80
2010,06,02,10,48,0.90
2010,06,02,10,49,0.30
2010,06,02,10,50,0.10
2010,06,02,10,51,0.10
2010,06,02,10,52,0.00
2010,06,02,10,53,0.00
2010,06,02,10,54,0.00
2010,06,02,10,55,0.00
2010,06,02,10,56,0.70
2010,06,02,10,57,0.40
2010,06,02,10,58,2.60
2010,06,02,10,59,0.00
2010,06,02,11,00,0.00
2010,06,02,11,01,0.00
2010,06,02,11,02,0.00
2010,06,02,11,03,0.00
2010,06,02,11,04,0.00
2010,06,02,11,05,0.00
2010,06,02,11,06,0.00
2010,06,02,11,07,0.00
2010,06,02,11,08,0.00
2010,06,02,11,09,0.10
2010,06,02,11,10,0.00
2010,06,02,11,11,0.00
2010,06,02,11,12,0.00
2010,06,02,11,13,0.00
2010,06,02,11,14,0.10
2010,06,02,11,15,0.00
2010,06,02,11,16,0.00
2010,06,02,11,17,0.00
2010,06,02,11,18,0.00
2010,06,02,11,19,0.00
2010,06,02,11,20,0.00
2010,06,02,11,21,2.40
2010,06,02,11,22,1.40
2010,06,02,11,23,1.80
2010,06,02,11,24,1.00
2010,06,02,11,25,1.40
2010,06,02,11,26,0.80
2010,06,02,11,27,2.20
2010,06,02,11,28,3.10
2010,06,02,11,29,3.90
2010,06,02,11,30,0.90
2010,06,02,11,31,0.50
2010,06,02,11,32,2.60
2010,06,02,11,33,1.90
2010,06,02,11,34,0.00
2010,06,02,11,35,3.60
2010,06,02,11,36,1.50
2010,06,02,11,37,0.00
2010,06,02,11,38,2.20
2010,06,02,11,39,5.50
2010,06,02,11,40,6.20
2010,06,02,11,41,4.50
2010,06,02,11,42,4.80
2010,06,02,11,43,3.00
2010,06,02,11,44,5.60
2010,06,02,11,45,2.70
2010,06,02,11,46,5.50
2010,06,02,11,47,5.80
2010,06,02,11,48,8.60
2010,06,02,11,49,9.30
2010,06,02,11,50,5.70
2010,06,02,11,51,7.60
2010,06,02,11,52,7.60
2010,06,02,11,53,5.60
2010,06,02,11,54,7.30
2010,06,02,11,55,6.20
2010,06,02,11,56,6.20
2010,06,02,11,57,6.30
2010,06,02,11,58,4.20
2010,06,02,11,59,3.10
2010,06,02,12,00,0.00
2010,06,02,12,01,3.50
2010,06,02,12,02,7.80
2010,06,02,12,03,9.10
2010,06,02,12,04,5.80
2010,06,02,12,05,5.80
2010,06,02,12,06,3.10
2010,06,02,12,07,2.60
2010,06,02,12,08,5.90
2010,06,02,12,09,5.30
2010,06,02,12,10,4.30
2010,06,02,12,11,5.00
2010,06,02,12,12,6.00
2010,06,02,12,13,4.30
2010,06,02,12,14,6.70
2010,06,02,12,15,4.50
2010,06,02,12,16,2.60
2010,06,02,12,17,4.40
2010,06,02,12,18,5.10
2010,06,02,12,19,7.40
2010,06,02,12,20,6.80
2010,06,02,12,21,8.20
2010,06,02,12,22,6.30
2010,06,02,12,23,8.10
2010,06,02,12,24,9.20
2010,06,02,12,25,8.10
2010,06,02,12,26,3.90
2010,06,02,12,27,8.30
2010,06,02,12,28,10.80
2010,06,02,12,29,7.50
2010,06,02,12,30,7.90
2010,06,02,12,31,14.60
2010,06,02,12,32,8.60
2010,06,02,12,33,7.80
2010,06,02,12,34,8.00
2010,06,02,12,35,6.10
2010,06,02,12,36,10.10
2010,06,02,12,37,7.60
2010,06,02,12,38,11.20
2010,06,02,12,39,16.50
2010,06,02,12,40,14.60
2010,06,02,12,41,9.70
2010,06,02,12,42,17.00
2010,06,02,12,43,19.10
2010,06,02,12,44,15.00
2010,06,02,12,45,17.20
2010,06,02,12,46,14.40
2010,06,02,12,47,17.20
2010,06,02,12,48,15.20
2010,06,02,12,49,13.30
2010,06,02,12,50,12.80
2010,06,02,12,51,16.90
2010,06,02,12,52,14.80
2010,06,02,12,53,13.40
2010,06,02,12,54,16.50
2010,06,02,12,55,15.10
2010,06,02,12,56,8.40
2010,06,02,12,57,18.10
2010,06,02,12,58,10.60
2010,06,02,12,59,13.60
2010,06,02,13,00,12.60
2010,06,02,13,01,16.00
2010,06,02,13,02,7.50
2010,06,02,13,03,9.20
2010,06,02,13,04,9.20
2010,06,02,13,05,12.30
2010,06,02,13,06,11.90
2010,06,02,13,07,13.40
2010,06,02,13,08,13.30
2010,06,02,13,09,9.60
2010,06,02,13,10,16.40
2010,06,02,13,11,9.80
2010,06,02,13,12,11.90
2010,06,02,13,13,10.30
2010,06,02,13,14,11.30
2010,06,02,13,15,18.50
2010,06,02,13,16,17.20
2010,06,02,13,17,11.30
2010,06,02,13,18,13.90
2010,06,02,13,19,17.10
2010,06,02,13,20,18.80
2010,06,02,13,21,14.70
2010,06,02,13,22,22.00
2010,06,02,13,23,18.00
2010,06,02,13,24,13.20
2010,06,02,13,25,13.00
2010,06,02,13,26,13.00
2010,06,02,13,27,16.30
2010,06,02,13,28,21.40
2010,06,02,13,29,17.50
2010,06,02,13,30,15.90
2010,06,02,13,31,18.60
2010,06,02,13,32,20.80
2010,06,02,13,33,14.10
2010,06,02,13,34,17.00
2010,06,02,13,35,16.40
2010,06,02,13,36,12.20
2010,06,02,13,37,11.60
2010,06,02,13,38,13.60
2010,06,02,13,39,12.90
2010,06,02,13,40,17.20
2010,06,02,13,41,16.70
2010,06,02,13,42,20.10
2010,06,02,13,43,18.20
2010,06,02,13,44,19.00
2010,06,02,13,45,18.80
2010,06,02,13,46,12.20
2010,06,02,13,47,20.60
2010,06,02,13,48,14.60
2010,06,02,13,49,9.60
2010,06,02,13,50,19.60
2010,06,02,13,51,26.00
2010,06,02,13,52,18.50
2010,06,02,13,53,22.10
2010,06,02,13,54,13.40
2010,06,02,13,55,19.80
2010,06,02,13,56,16.20
2010,06,02,13,57,11.10
2010,06,02,13,58,17.70
2010,06,02,13,59,19.60
2010,06,02,14,00,24.80
2010,06,02,14,01,21.50
2010,06,02,14,02,22.10
2010,06,02,14,03,17.10
2010,06,02,14,04,19.90
2010,06,02,14,05,17.20
2010,06,02,14,06,23.80
2010,06,02,14,07,20.00
2010,06,02,14,08,28.30
2010,06,02,14,09,28.80
2010,06,02,14,10,23.10
2010,06,02,14,11,17.40
2010,06,02,14,12,26.50
2010,06,02,14,13,24.70
2010,06,02,14,14,27.50
2010,06,02,14,15,18.60
2010,06,02,14,16,25.10
2010,06,02,14,17,22.40
2010,06,02,14,18,23.30
2010,06,02,14,19,26.40
2010,06,02,14,20,27.10
2010,06,02,14,21,24.40
2010,06,02,14,22,21.40
2010,06,02,14,23,14.10
2010,06,02,14,24,14.40
2010,06,02,14,25,14.90
2010,06,02,14,26,19.40
2010,06,02,14,27,18.80
2010,06,02,14,28,22.90
2010,06,02,14,29,24.00
2010,06,02,14,30,24.20
2010,06,02,14,31,28.00
2010,06,02,14,32,23.70
2010,06,02,14,33,23.50
2010,06,02,14,34,26.60
2010,06,02,14,35,32.10
2010,06,02,14,36,22.50
2010,06,02,14,37,18.90
2010,06,02,14,38,22.10
2010,06,02,14,39,16.70
2010,06,02,14,40,21.80
2010,06,02,14,41,20.00
2010,06,02,14,42,22.00
2010,06,02,14,43,22.40
2010,06,02,14,44,29.50
2010,06,02,14,45,29.80
2010,06,02,14,46,27.80
2010,06,02,14,47,22.80
2010,06,02,14,48,18.90
2010,06,02,14,49,24.30
2010,06,02,14,50,20.90
2010,06,02,14,51,21.20
2010,06,02,14,52,20.50
2010,06,02,14,53,25.20
2010,06,02,14,54,20.90
2010,06,02,14,55,25.10
2010,06,02,14,56,21.40
2010,06,02,14,57,29.40
2010,06,02,14,58,31.50
2010,06,02,14,59,35.90
2010,06,02,15,00,27.00
2010,06,02,15,01,23.40
2010,06,02,15,02,26.40
2010,06,02,15,03,33.00
2010,06,02,15,04,24.70
2010,06,02,15,05,26.20
2010,06,02,15,06,30.10
2010,06,02,15,07,39.90
2010,06,02,15,08,26.30
2010,06,02,15,09,26.40
2010,06,02,15,10,32.70
2010,06,02,15,11,31.80
2010,06,02,15,12,28.70
2010,06,02,15,13,25.70
2010,06,02,15,14,29.40
2010,06,02,15,15,34.40
2010,06,02,15,16,28.40
2010,06,02,15,17,24.60
2010,06,02,15,18,27.40
2010,06,02,15,19,23.10
2010,06,02,15,20,24.10
2010,06,02,15,21,17.60
2010,06,02,15,22,18.30
2010,06,02,15,23,17.10
2010,06,02,15,24,25.60
2010,06,02,15,25,34.40
2010,06,02,15,26,25.50
2010,06,02,15,27,32.70
2010,06,02,15,28,19.70
2010,06,02,15,29,22.50
2010,06,02,15,30,31.40
2010,06,02,15,31,28.00
2010,06,02,15,32,26.90
2010,06,02,15,33,30.20
2010,06,02,15,34,34.60
2010,06,02,15,35,32.20
2010,06,02,15,36,26.10
2010,06,02,15,37,23.70
2010,06,02,15,38,30.50
2010,06,02,15,39,33.00
2010,06,02,15,40,24.60
2010,06,02,15,41,23.00
2010,06,02,15,42,25.80
2010,06,02,15,43,30.00
2010,06,02,15,44,33.00
2010,06,02,15,45,28.80
2010,06,02,15,46,27.80
2010,06,02,15,47,26.90
2010,06,02,15,48,20.80
2010,06,02,15,49,23.40
2010,06,02,15,50,19.80
2010,06,02,15,51,34.80
2010,06,02,15,52,38.10
2010,06,02,15,53,25.30
2010,06,02,15,54,25.00
2010,06,02,15,55,25.80
2010,06,02,15,56,27.30
2010,06,02,15,57,30.20
2010,06,02,15,58,33.30
2010,06,02,15,59,27.60
2010,06,02,16,00,28.10
2010,06,02,16,01,26.90
2010,06,02,16,02,37.40
2010,06,02,16,03,38.00
2010,06,02,16,04,28.90
2010,06,02,16,05,29.10
2010,06,02,16,06,26.60
2010,06,02,16,07,26.40
2010,06,02,16,08,31.90
2010,06,02,16,09,29.20
2010,06,02,16,10,25.50
2010,06,02,16,11,16.20
2010,06,02,16,12,24.00
2010,06,02,16,13,28.20
2010,06,02,16,14,33.60
2010,06,02,16,15,25.70
2010,06,02,16,16,25.60
2010,06,02,16,17,35.50
2010,06,02,16,18,31.30
2010,06,02,16,19,35.50
2010,06,02,16,20,24.50
2010,06,02,16,21,17.20
2010,06,02,16,22,27.80
2010,06,02,16,23,30.70
2010,06,02,16,24,20.00
2010,06,02,16,25,28.60
2010,06,02,16,26,24.90
2010,06,02,16,27,18.40
2010,06,02,16,28,18.50
2010,06,02,16,29,12.00
2010,06,02,16,30,24.80
2010,06,02,16,31,37.70
2010,06,02,16,32,29.50
2010,06,02,16,33,22.50
2010,06,02,16,34,18.60
2010,06,02,16,35,12.90
2010,06,02,16,36,20.70
2010,06,02,16,37,26.30
2010,06,02,16,38,22.80
2010,06,02,16,39,30.60
2010,06,02,16,40,27.40
2010,06,02,16,41,23.30
2010,06,02,16,42,30.30
2010,06,02,16,43,33.90
2010,06,02,16,44,43.50
2010,06,02,16,45,37.70
2010,06,02,16,46,31.90
2010,06,02,16,47,32.40
2010,06,02,16,48,30.70
2010,06,02,16,49,42.30
2010,06,02,16,50,39.10
2010,06,02,16,51,45.30
2010,06,02,16,52,29.10
2010,06,02,16,53,32.40
2010,06,02,16,54,24.50
2010,06,02,16,55,35.10
2010,06,02,16,56,36.00
2010,06,02,16,57,30.00
2010,06,02,16,58,39.30
2010,06,02,16,59,30.40
2010,06,02,17,00,23.20
2010,06,02,17,01,24.50
2010,06,02,17,02,35.60
2010,06,02,17,03,39.50
2010,06,02,17,04,47.50
2010,06,02,17,05,39.60
2010,06,02,17,06,45.90
2010,06,02,17,07,45.30
2010,06,02,17,08,39.20
2010,06,02,17,09,38.10
2010,06,02,17,10,25.60
2010,06,02,17,11,26.00
2010,06,02,17,12,30.80
2010,06,02,17,13,37.70
2010,06,02,17,14,40.80
2010,06,02,17,15,32.40
2010,06,02,17,16,24.10
2010,06,02,17,17,28.00
2010,06,02,17,18,30.20
2010,06,02,17,19,30.20
2010,06,02,17,20,25.30
2010,06,02,17,21,28.00
2010,06,02,17,22,23.60
2010,06,02,17,23,34.30
2010,06,02,17,24,27.20
2010,06,02,17,25,41.00
2010,06,02,17,26,33.00
2010,06,02,17,27,33.60
2010,06,02,17,28,34.10
2010,06,02,17,29,35.70
2010,06,02,17,30,42.90
2010,06,02,17,31,35.70
2010,06,02,17,32,44.00
2010,06,02,17,33,35.80
2010,06,02,17,34,30.60
2010,06,02,17,35,41.80
2010,06,02,17,36,36.90
2010,06,02,17,37,34.70
2010,06,02,17,38,25.50
2010,06,02,17,39,40.50
2010,06,02,17,40,32.10
2010,06,02,17,41,44.90
2010,06,02,17,42,50.70
2010,06,02,17,43,46.30
2010,06,02,17,44,42.30
2010,06,02,17,45,40.70
2010,06,02,17,46,33.90
2010,06,02,17,47,34.90
2010,06,02,17,48,30.10